When you browse on this site, cookies collect data to enhance your experience and personalize the content and advertising you see.
Visit our Privacy Policy to learn more. By continuing to use the site, you agree to this use of cookies and data.
  • In Portugal
  • List of Countries
  • For 7 days
  • Water Temperature
  • Satellite Maps
  • Weather Map
  • Weather Widgets
  • user-avatar
    Login

    Hourly Weather Ovsyankino

    Today, 26 April, Friday

    Time Temperature Precipitation Wind Pressure Humidity
    00:00 +14°C° 0 mm 1 mps 747 mmHg 52%
    01:00 +13°C° 0 mm 1 mps 747 mmHg 54%
    02:00 +13°C° 0 mm 1 mps 747 mmHg 55%
    03:00 +11°C° 0 mm 0 mps 747 mmHg 56%
    04:00 +11°C° 0 mm 0 mps 747 mmHg 57%
    05:00 +11°C° 0 mm 0 mps 747 mmHg 58%
    06:00 +13°C° 0 mm 0 mps 747 mmHg 53%
    07:00 +15°C° 0 mm 0 mps 747 mmHg 48%
    08:00 +19°C° 0 mm 1 mps 747 mmHg 43%
    09:00 +21°C° 0 mm 1 mps 747 mmHg 38%
    10:00 +23°C° 0 mm 1 mps 747 mmHg 33%
    11:00 +24°C° 0 mm 2 mps 747 mmHg 29%
    12:00 +24°C° 0 mm 2 mps 746 mmHg 29%
    13:00 +24°C° 0 mm 2 mps 746 mmHg 29%
    14:00 +24°C° 0 mm 2 mps 746 mmHg 29%
    15:00 +23°C° 0 mm 2 mps 746 mmHg 32%
    16:00 +23°C° 0 mm 2 mps 745 mmHg 35%
    17:00 +21°C° 0 mm 2 mps 745 mmHg 37%
    18:00 +19°C° 0 mm 2 mps 745 mmHg 42%
    19:00 +18°C° 0 mm 2 mps 745 mmHg 47%
    20:00 +16°C° 0 mm 1 mps 744 mmHg 52%
    21:00 +15°C° 0 mm 1 mps 744 mmHg 54%
    22:00 +14°C° 0 mm 1 mps 744 mmHg 57%
    23:00 +13°C° 0 mm 1 mps 744 mmHg 59%

    Tomorrow, 27 April, Saturday

    Time Temperature Precipitation Wind Pressure Humidity
    00:00 +13°C° 0 mm 1 mps 744 mmHg 61%
    01:00 +12°C° 0 mm 1 mps 743 mmHg 64%
    02:00 +12°C° 0 mm 2 mps 743 mmHg 67%
    03:00 +12°C° 0 mm 2 mps 743 mmHg 69%
    04:00 +12°C° 0 mm 2 mps 742 mmHg 71%
    05:00 +11°C° 0 mm 1 mps 742 mmHg 73%
    06:00 +13°C° 0 mm 2 mps 742 mmHg 67%
    07:00 +15°C° 0 mm 2 mps 742 mmHg 60%
    08:00 +17°C° 0 mm 2 mps 741 mmHg 54%
    09:00 +18°C° 0 mm 2 mps 741 mmHg 48%
    10:00 +20°C° 0 mm 2 mps 741 mmHg 41%
    11:00 +22°C° 0 mm 3 mps 740 mmHg 34%
    12:00 +23°C° 0 mm 2 mps 740 mmHg 34%
    13:00 +24°C° 0 mm 2 mps 739 mmHg 33%
    14:00 +24°C° 0 mm 2 mps 739 mmHg 33%
    15:00 +24°C° 0 mm 2 mps 739 mmHg 37%
    16:00 +23°C° 0 mm 1 mps 738 mmHg 41%
    17:00 +22°C° 0 mm 1 mps 738 mmHg 44%
    18:00 +21°C° 0 mm 1 mps 738 mmHg 49%
    19:00 +19°C° 0 mm 1 mps 738 mmHg 54%
    20:00 +17°C° 0 mm 2 mps 738 mmHg 58%
    21:00 +16°C° 0.3 mm 2 mps 738 mmHg 67%
    22:00 +14°C° 0.3 mm 2 mps 738 mmHg 76%
    23:00 +13°C° 0.3 mm 2 mps 738 mmHg 85%

    Day after tomorrow, 28 April, Sunday

    Time Temperature Precipitation Wind Pressure Humidity
    00:00 +11°C° 0 mm 3 mps 738 mmHg 87%
    01:00 +11°C° 0 mm 3 mps 739 mmHg 90%
    02:00 +11°C° 0 mm 4 mps 739 mmHg 92%
    03:00 +10°C° 0 mm 4 mps 740 mmHg 89%
    04:00 +8°C° 0 mm 5 mps 740 mmHg 85%
    05:00 +8°C° 0 mm 5 mps 741 mmHg 82%
    06:00 +7°C° 0 mm 5 mps 741 mmHg 80%
    07:00 +7°C° 0 mm 5 mps 742 mmHg 77%
    08:00 +6°C° 0 mm 5 mps 743 mmHg 75%
    09:00 +7°C° 0 mm 5 mps 744 mmHg 65%
    10:00 +8°C° 0 mm 5 mps 744 mmHg 56%
    11:00 +9°C° 0 mm 5 mps 745 mmHg 46%
    12:00 +9°C° 0 mm 5 mps 745 mmHg 42%
    13:00 +10°C° 0 mm 5 mps 745 mmHg 37%
    14:00 +10°C° 0 mm 5 mps 746 mmHg 32%
    15:00 +10°C° 0 mm 5 mps 746 mmHg 32%
    16:00 +9°C° 0 mm 5 mps 746 mmHg 32%
    17:00 +9°C° 0 mm 5 mps 746 mmHg 32%
    18:00 +7°C° 0 mm 4 mps 746 mmHg 37%
    19:00 +7°C° 0 mm 3 mps 747 mmHg 42%
    20:00 +5°C° 0 mm 2 mps 748 mmHg 47%
    21:00 +4°C° 0 mm 2 mps 748 mmHg 51%
    22:00 +3°C° 0 mm 2 mps 748 mmHg 54%
    23:00 +3°C° 0 mm 2 mps 749 mmHg 57%

    29 April, Monday

    Time Temperature Precipitation Wind Pressure Humidity
    00:00 +2°C° 0 mm 2 mps 749 mmHg 59%
    01:00 +1°C° 0 mm 2 mps 749 mmHg 60%
    02:00 +1°C° 0 mm 2 mps 750 mmHg 62%
    03:00 +1°C° 0 mm 2 mps 750 mmHg 63%
    04:00 -1°C° 0 mm 2 mps 750 mmHg 63%
    05:00 -1°C° 0 mm 2 mps 750 mmHg 64%
    06:00 +1°C° 0 mm 3 mps 750 mmHg 57%
    07:00 +2°C° 0 mm 3 mps 751 mmHg 51%
    08:00 +4°C° 0 mm 3 mps 751 mmHg 45%
    09:00 +5°C° 0 mm 3 mps 751 mmHg 41%
    10:00 +8°C° 0 mm 3 mps 751 mmHg 38%
    11:00 +9°C° 0 mm 3 mps 751 mmHg 34%
    12:00 +9°C° 0 mm 2 mps 750 mmHg 32%
    13:00 +10°C° 0 mm 2 mps 750 mmHg 30%
    14:00 +12°C° 0 mm 2 mps 749 mmHg 28%
    15:00 +12°C° 0 mm 2 mps 749 mmHg 29%
    16:00 +10°C° 0 mm 2 mps 749 mmHg 29%
    17:00 +10°C° 0 mm 2 mps 748 mmHg 30%
    18:00 +8°C° 0 mm 2 mps 748 mmHg 36%
    19:00 +7°C° 0 mm 1 mps 748 mmHg 41%
    20:00 +6°C° 0 mm 1 mps 748 mmHg 47%
    21:00 +5°C° 0 mm 1 mps 748 mmHg 49%
    22:00 +4°C° 0 mm 1 mps 748 mmHg 51%
    23:00 +3°C° 0 mm 1 mps 748 mmHg 53%

    30 April, Tuesday

    Time Temperature Precipitation Wind Pressure Humidity
    00:00 +3°C° 0 mm 1 mps 748 mmHg 54%
    01:00 +3°C° 0 mm 1 mps 748 mmHg 55%
    02:00 +2°C° 0 mm 1 mps 748 mmHg 56%
    03:00 +2°C° 0 mm 1 mps 747 mmHg 56%
    04:00 +2°C° 0 mm 1 mps 747 mmHg 56%
    05:00 +2°C° 0 mm 1 mps 747 mmHg 56%
    06:00 +5°C° 0 mm 1 mps 747 mmHg 50%
    07:00 +7°C° 0 mm 1 mps 747 mmHg 43%
    08:00 +10°C° 0 mm 1 mps 747 mmHg 37%
    09:00 +11°C° 0 mm 1 mps 747 mmHg 33%
    10:00 +12°C° 0 mm 1 mps 746 mmHg 30%
    11:00 +13°C° 0 mm 1 mps 746 mmHg 27%
    12:00 +14°C° 0 mm 1 mps 746 mmHg 27%
    13:00 +14°C° 0 mm 1 mps 745 mmHg 26%
    14:00 +15°C° 0 mm 1 mps 745 mmHg 26%
    15:00 +14°C° 0 mm 1 mps 745 mmHg 28%
    16:00 +13°C° 0 mm 1 mps 744 mmHg 29%
    17:00 +13°C° 0 mm 1 mps 744 mmHg 30%
    18:00 +11°C° 0 mm 1 mps 744 mmHg 35%
    19:00 +10°C° 0 mm 1 mps 744 mmHg 40%
    20:00 +8°C° 0 mm 1 mps 744 mmHg 44%
    21:00 +8°C° 0 mm 1 mps 744 mmHg 47%
    22:00 +7°C° 0 mm 1 mps 744 mmHg 49%
    23:00 +6°C° 0 mm 1 mps 744 mmHg 51%

    1 May, Wednesday

    Time Temperature Precipitation Wind Pressure Humidity
    00:00 +5°C° 0 mm 1 mps 743 mmHg 53%
    01:00 +5°C° 0 mm 1 mps 743 mmHg 55%
    02:00 +4°C° 0 mm 1 mps 743 mmHg 57%
    03:00 +4°C° 0 mm 1 mps 743 mmHg 57%
    04:00 +4°C° 0 mm 1 mps 743 mmHg 57%
    05:00 +5°C° 0 mm 1 mps 742 mmHg 57%
    06:00 +7°C° 0 mm 1 mps 742 mmHg 51%
    07:00 +9°C° 0 mm 1 mps 742 mmHg 45%
    08:00 +11°C° 0 mm 1 mps 742 mmHg 39%
    09:00 +12°C° 0 mm 1 mps 742 mmHg 36%
    10:00 +13°C° 0 mm 1 mps 741 mmHg 32%
    11:00 +14°C° 0 mm 1 mps 741 mmHg 29%
    12:00 +14°C° 0 mm 2 mps 740 mmHg 29%
    13:00 +14°C° 0 mm 2 mps 740 mmHg 29%
    14:00 +15°C° 0 mm 2 mps 739 mmHg 29%
    15:00 +14°C° 0 mm 2 mps 739 mmHg 31%
    16:00 +14°C° 0 mm 2 mps 738 mmHg 32%
    17:00 +14°C° 0 mm 2 mps 738 mmHg 34%
    18:00 +13°C° 0 mm 2 mps 738 mmHg 39%
    19:00 +10°C° 0 mm 2 mps 737 mmHg 43%
    20:00 +9°C° 0 mm 2 mps 737 mmHg 48%
    21:00 +8°C° 0 mm 2 mps 737 mmHg 52%
    22:00 +8°C° 0 mm 2 mps 736 mmHg 56%
    23:00 +7°C° 0 mm 2 mps 736 mmHg 60%
    Show more